Location: Unspecified
(51.0950°N, 12.9690°E)
Time: 15:45:02
(UTC+00:00)

CZ-2D R/B - Pass Details

Date: 28 October 2021
Orbit: 519 x 537 km, 97.4° (Epoch: 02 December)

Event Time Altitude Azimuth Distance (km) Brightness Sun altitude
Rises 16:32:15 0° 156° (SSE) 2,674 6.7 -7.3°
Reaches altitude 10° 16:34:22 10° 153° (SSE) 1,790 5.8 -7.6°
Maximum altitude 16:38:11 61° 73° (ENE) 618 3.3 -8.2°
Drops below altitude 10° 16:42:02 10° 353° (N) 1,809 5.9 -8.8°
Sets 16:44:11 0° 350° (N) 2,706 6.9 -9.2°
